Regional Weather Roundup
Issued by NWS

Home | Current Version | Previous Version | Graphics & Text | Print | Product List | Glossary On
Versions: 1 2 3 4 5 6 7 8 9 10 11 12 13 14 15 16 17 18 19 20 21 22 23 24 25 26 27 28 29 30 31 32 33 34 35 36 37 38 39 40 41 42 43 44 45 46 47 48 49 50
229
ASUS44 KJAN 240710
RWRMS

MISSISSIPPI HOURLY WEATHER ROUNDUP
NATIONAL WEATHER SERVICE JACKSON MS
100 AM CST MON NOV 24 2014

NOTE: "FAIR: INDICATES FEW OR NO CLOUDS BELOW 12,000 FEET WITH NO
SIGNIFICANT WEATHER AND/OR OBSTRUCTIONS TO VISIBILITY.

MSZ001>002-007>008-010>013-018>021-025>028-034>036-240800-
NORTHWEST MISSISSIPPI

CITY           SKY/WX    TMP DP  RH WIND       PRES   REMARKS
CLARKSDALE     FAIR      61  57  88 SW16      29.52R
CLEVELAND      FAIR      61  56  85 SW20G26   29.55R
GREENWOOD      CLEAR     62  56  80 SW15      29.57R
GREENVILLE     CLEAR     62  54  74 SW23G31   29.55R
GRENADA        FAIR      63  55  77 SW13G21   29.55S
OLIVE BRANCH   CLEAR     59  57  94 SW24G32   29.44S
OXFORD         FAIR      57  54  88 S10G22    29.52S
TUNICA         SUNNY     59  55  88 S18       29.48R
$$

MSZ003>006-009-014>017-022>024-029>033-037>039-240800-
NORTHEAST MISSISSIPPI

CITY           SKY/WX    TMP DP  RH WIND       PRES   REMARKS
COLUMBUS AFB   CLEAR     61  58  88 S12       29.60S
CORINTH        FAIR      61  55  82 S12G21    29.49S
GOLDN TRIANGLE CLEAR     61  57  88 S15       29.60S
STARKVILLE       N/A     61  57  88 S9        29.60S
TUPELO         CLEAR     59  55  87 MISG      29.54F
$$

MSZ040-058-240800-
CENTRAL MISSISSIPPI

CITY           SKY/WX    TMP DP  RH WIND       PRES   REMARKS
JACKSON INTL   CLEAR     63  60  90 S12       29.65S
JACKSON HAWKNS CLEAR     63  59  87 S10       29.65S
MERIDIAN KEY   PTCLDY    65  60  84 S18G25    29.67F
MERIDIAN NAS   PTCLDY    65  60  84 SW12      29.67S
RAYMOND        FAIR      64  59  82 SW8G17    29.66R
VICKSBURG      CLEAR     63  57  81 VRB5      29.65R
$$

MSZ059>079-240800-
SOUTH MISSISSIPPI

CITY           SKY/WX    TMP DP  RH WIND       PRES   REMARKS
BROOKHAVEN     FAIR      63  63 100 S9        29.70S FOG
HATTIESBURG    PTCLDY    68  64  87 S7        29.73R
MCCOMB         CLOUDY    64  62  93 SW9       29.71S
NATCHEZ        CLEAR     64  61  88 S8        29.68R
PINE BELT      PTCLDY    66  61  82 SW10G17   29.72S
$$

MSZ080>082-240800-
COASTAL MISSISSIPPI

CITY           SKY/WX    TMP DP  RH WIND       PRES   REMARKS
BILOXI         FOG       63  63 100 SW7       29.75S VSB 1/2
PASCAGOULA     CLOUDY    68  67  96 SW6       29.76S
GULFPORT       CLOUDY    65  65 100 S7        29.75S FOG
$$



USA.gov is the U.S. government's official web portal to all federal, state and local government web resources and services.